Flag for U.S.A. Weather past 2 weeks in Provincetown, Massachusetts, U.S.A.

Now
37 °F

Overcast.


Feels Like: 27 °F
Forecast: 34 / 37 °F
Wind: 18 mph from Northwest

Location: Provincetown Weather Reporting Station

Current Time: Dec 19, 2014 at 3:25:20 AM

Latest Report: Dec 19, 2014 at 2:55 AM


Visibility: 10 mi

Pressure: 29.85 "Hg

Humidity: 60%

Dew point: 25 °F

Location of ProvincetownLocation

Historic Weather in Provincetown — Graph

°F

Provincetown temperature yesterday

Maximum temperature yesterday: 45 °F (at 1:35 PM)
Minimum temperature yesterday: 37 °F (at 6:55 AM)
Average temperature yesterday: 41 °F

Past Weeks' High & Low Weather Summary

 TemperatureHumidityPressure
High55 °F (Dec 6, 7:35 AM)100% (Dec 9, 5:35 PM)30.73 "Hg (Dec 9, 5:35 PM)
Low27 °F (Dec 5, 6:35 AM)37% (Dec 4, 1:15 PM)29.43 "Hg (Dec 10, 6:35 PM)
Average41 °F74%30.02 "Hg
* Reported Dec 4 2:15 AM — Dec 19 2:15 AM, Provincetown, Weather by CustomWeather, © 2014

Note: Actual official high and low records may vary slightly from our data, if they occured in-between our weather recording intervals... More about our weather records

Advertising

Provincetown weather history for previous 24 hours

 ConditionsComfort  
Time TempWeatherWind HumidityBarometerVisibility
2:15 AM
Dec 19
39 °FOvercast.17 mph56%29.86 "Hg10 mi
1:55 AM39 °FOvercast.20 mph61%29.85 "Hg10 mi
1:35 AM37 °FPartly cloudy.17 mph65%29.85 "Hg10 mi
1:15 AM37 °FPartly cloudy.18 mph65%29.84 "Hg10 mi
12:55 AM37 °FPassing clouds.16 mph65%29.84 "Hg10 mi
12:35 AM39 °FPassing clouds.16 mph61%29.84 "Hg10 mi
12:15 AM39 °FPassing clouds.18 mph61%29.85 "Hg10 mi
11:55 PM
Dec 18
39 °FPassing clouds.18 mph61%29.85 "Hg10 mi
11:35 PM39 °FPassing clouds.17 mph65%29.85 "Hg10 mi
11:15 PM39 °FPassing clouds.17 mph65%29.84 "Hg10 mi
10:35 PM39 °FOvercast.18 mph65%29.84 "Hg10 mi
10:15 PM39 °FMostly cloudy.16 mph65%29.85 "Hg10 mi
9:55 PM39 °FPartly cloudy.17 mph65%29.83 "Hg10 mi
9:35 PM39 °FPassing clouds.16 mph65%29.82 "Hg10 mi
9:15 PM39 °FPassing clouds.17 mph65%29.83 "Hg10 mi
8:55 PM41 °FOvercast.22 mph61%29.83 "Hg10 mi
8:35 PM41 °FMostly cloudy.21 mph61%29.83 "Hg10 mi
8:15 PM41 °FMostly cloudy.18 mph61%29.83 "Hg10 mi
7:55 PM41 °FMostly cloudy.16 mph61%29.83 "Hg10 mi
7:35 PM43 °FOvercast.18 mph57%29.84 "Hg10 mi
6:55 PM43 °FMostly cloudy.24 mph57%29.83 "Hg10 mi
6:35 PM43 °FMostly cloudy.18 mph57%29.83 "Hg10 mi
6:15 PM43 °FOvercast.20 mph61%29.82 "Hg10 mi
5:55 PM43 °FOvercast.20 mph57%29.81 "Hg10 mi
5:35 PM43 °FOvercast.13 mph57%29.81 "Hg10 mi
5:15 PM43 °FOvercast.17 mph57%29.80 "Hg10 mi
4:55 PM43 °FOvercast.18 mph61%29.80 "Hg10 mi
4:35 PM43 °FOvercast.17 mph61%29.80 "Hg10 mi
4:15 PM43 °FOvercast.17 mph61%29.80 "Hg10 mi
3:55 PM43 °FOvercast.17 mph61%29.79 "Hg10 mi
3:35 PM43 °FOvercast.17 mph61%29.78 "Hg10 mi
3:15 PM43 °FOvercast.18 mph61%29.78 "Hg10 mi
2:55 PM43 °FOvercast.17 mph61%29.77 "Hg10 mi
2:35 PM43 °FOvercast.23 mph61%29.76 "Hg10 mi
2:15 PM45 °FPartly sunny.21 mph57%29.75 "Hg10 mi
1:55 PM45 °FOvercast.22 mph57%29.75 "Hg10 mi
1:35 PM45 °FOvercast.22 mph57%29.74 "Hg10 mi
12:55 PM43 °FOvercast.20 mph61%29.75 "Hg10 mi
12:35 PM43 °FMostly cloudy.22 mph61%29.74 "Hg10 mi
12:15 PM43 °FPartly sunny.22 mph66%29.75 "Hg10 mi
11:55 AM43 °FMostly cloudy.22 mph66%29.75 "Hg10 mi
11:35 AM43 °FMostly cloudy.24 mph61%29.75 "Hg10 mi
11:15 AM43 °FPartly sunny.18 mph66%29.75 "Hg10 mi
10:55 AM41 °FPartly sunny.25 mph70%29.75 "Hg10 mi
10:35 AM39 °FMostly cloudy.25 mph81%29.76 "Hg10 mi
10:15 AM39 °FMore clouds than sun.24 mph81%29.76 "Hg10 mi
9:55 AM39 °FMore clouds than sun.24 mph81%29.76 "Hg10 mi
9:35 AM39 °FMore clouds than sun.21 mph81%29.76 "Hg10 mi
9:15 AM37 °FChilly.24 mph93%29.76 "HgN/A
8:55 AM37 °FChilly.25 mph87%29.75 "HgN/A
8:35 AM37 °FChilly.24 mph87%29.75 "HgN/A
8:15 AM37 °FMostly cloudy.23 mph87%29.75 "HgN/A
7:55 AM37 °FChilly.21 mph87%29.74 "HgN/A
7:35 AM37 °FChilly.22 mph87%29.73 "HgN/A
7:15 AM37 °FMostly cloudy.23 mph87%29.73 "HgN/A
6:55 AM37 °FMostly cloudy.20 mph87%29.73 "Hg8 mi
6:35 AM39 °FMostly cloudy.22 mph81%29.73 "Hg10 mi
6:15 AM39 °FOvercast.21 mph75%29.72 "Hg10 mi
5:55 AM41 °FOvercast.17 mph66%29.72 "Hg10 mi
5:35 AM41 °FOvercast.18 mph66%29.72 "Hg10 mi
5:15 AM41 °FMostly cloudy.18 mph70%29.71 "Hg10 mi
4:55 AM41 °FOvercast.20 mph66%29.70 "Hg10 mi
4:35 AM41 °FOvercast.20 mph66%29.70 "Hg10 mi
4:15 AM41 °FOvercast.16 mph66%29.70 "Hg10 mi
3:55 AM41 °FOvercast.17 mph66%29.70 "Hg10 mi
3:35 AM41 °FOvercast.14 mph70%29.71 "Hg10 mi
3:15 AM41 °FOvercast.16 mph70%29.72 "Hg10 mi
Weather by CustomWeather, © 2014

See weather overviewHow to use our weather pages